Torna al catalogo

STARLINK-11314

AttivoComunicazioniVLEO
NORAD 61878·PAYLOAD·🇺🇸 United States

Lanciato Nov 9, 2024 da Vandenberg Space Force Base

Loading…

Prossimi Passaggi (prossime 24 ore)

TLE

AggiornatoSource: CelesTrak SupGP

Epoca: Sep 14, 2026, 15:18 UTC

1 61878C 24204E   26257.63798611  .00053066  00000+0  43719-3 0  2578
2 61878  53.1566 144.9866 0001128 104.8860  80.9570 15.69678861    12

Traccia STARLINK-11314 in tempo reale con AllMySat

Download on the App Store